Terminal Aerodrome Forecast
Issued by NWS Wilmington, NC

Current Version | Previous Version | Graphics & Text | Print | Product List | Glossary Off
Versions: 1 2 3 4 5 6 7 8 9 10 11 12 13 14 15 16

000
FTUS42 KILM 230500
TAFILM
TAF
KILM 230522Z 2306/2406 31006KT P6SM SKC
     FM231400 31010KT P6SM SKC
     FM232200 00000KT P6SM SKC=

USA.gov is the U.S. government's official web portal to all federal, state and local government web resources and services.